QPF
0.00 0.00 0.00 0.00 0.00 0.00 0.00 0.00 0.00 0.00 0.00 0.00 0.00 0.00 0.00 0.00 0.00 0.00 0.00 0.00 0.00 0.00 0.00 0.00 0.00 0.00 0.00 0.00 0.00 0.00 0.00 0.00 0.00 0.00 0.00 0.00 0.00 0.00 0.00 0.00 0.00 0.00 0.00 0.00
0.00 0.00 0.00 0.00 0.00 0.00 0.00 0.00 0.00 0.00 0.00 0.00 0.00 0.00 0.00 0.00 0.00 0.00 0.00 0.00 0.00 0.00 0.00 0.00 0.00 0.00 0.00 0.00 0.00 0.00 0.00 0.00 0.00 0.00 0.00 0.00 0.00 0.00 0.00 0.00 0.00 0.00 0.00 0.00
0.00 0.00 0.00 0.00 0.00 0.00 0.00 0.00 0.00 0.00 0.00 0.00 0.00 0.00 0.00 0.00 0.00 0.00 0.00 0.00 0.00 0.00 0.00 0.00 0.00 0.00 0.00 0.00 0.00 0.00 0.00 0.00 0.00 0.00 0.00 0.00 0.00 0.00 0.00 0.00 0.00 0.00 0.00 0.00
0.00 0.00 0.00 0.00 0.00 0.00 0.00 0.00 0.00 0.00 0.00 0.00 0.00 0.00 0.00 0.00 0.00 0.00 0.00 0.00 0.00 0.00 0.00 0.00 0.00 0.00 0.00 0.00 0.00 0.00 0.00 0.00 0.00 0.00 0.00 0.00 0.00 0.00 0.00 0.00 0.00 0.00 0.00 0.00
0.00 0.00 0.00 0.00 0.00 0.00 0.00 0.00 0.00 0.00 0.00 0.00 0.00 0.00 0.00 0.00 0.00 0.00 0.00 0.00 0.00 0.00 0.00 0.00 0.00 0.00 0.00 0.00 0.00 0.00 0.00 0.00 0.00 0.00 0.00 0.00 0.00 0.00 0.00 0.00 0.00 0.00 0.00 0.00
0.00 0.00 0.00 0.00 0.00 0.00 0.00 0.00 0.00 0.00 0.00 0.00 0.00 0.00 0.00 0.00 0.00 0.00 0.00 0.00 0.00 0.00 0.00 0.00 0.00 0.00 0.00 0.00 0.00 0.00 0.00 0.00 0.00 0.00 0.00 0.00 0.00 0.00 0.00 0.00 0.00 0.00 0.00 0.00
0.00 0.00 0.00 0.00 0.00 0.00 0.00 0.00 0.00 0.00 0.00 0.00 0.00 0.00 0.00 0.00 0.00 0.00 0.00 0.00 0.00 0.00 0.00 0.00 0.00 0.00 0.00 0.00 0.00 0.00 0.00 0.00 0.00 0.00 0.00 0.00 0.00 0.00 0.00 0.00 0.00 0.00 0.00 0.00
0.00 0.00 0.00 0.00 0.00 0.00 0.00 0.00 0.00 0.00 0.00 0.00 0.00 0.00 0.00 0.00 0.00 0.00 0.00 0.00 0.00 0.00 0.00 0.00 0.00 0.00 0.00 0.00 0.00 0.00 0.00 0.00 0.00 0.00 0.00 0.00 0.00 0.00 0.00 0.00 0.00 0.00 0.00 0.00
0.00 0.00 0.00 0.00 0.00 0.00 0.00 0.00 0.00 0.00 0.00 0.00 0.00 0.00 0.00 0.00 0.00 0.00 0.00 0.00 0.00 0.00 0.00 0.00 0.00 0.00 0.00 0.00 0.00 0.00 0.00 0.00 0.00 0.00 0.00 0.00 0.00 0.00 0.00 0.00 0.00 0.00 0.00 0.00
0.00 0.00 0.00 0.00 0.00 0.00 0.00 0.00 0.00 0.00 0.00 0.00 0.00 0.00 0.00 0.00 0.00 0.00 0.00 0.00 0.00 0.00 0.00 0.00 0.00 0.00 0.00 0.00 0.00 0.00 0.00 0.00 0.00 0.00 0.00 0.00 0.00 0.00 0.00 0.00 0.00 0.00 0.00 0.00
0.00 0.00 0.00 0.00 0.00 0.00 0.00 0.00 0.00 0.00 0.00 0.01 0.00 0.00 0.00 0.00 0.00 0.00 0.00 0.00 0.00 0.00 0.00 0.00 0.00 0.00 0.00 0.00 0.00 0.00 0.00 0.00 0.00 0.00 0.00 0.00 0.00 0.00 0.00 0.00 0.00 0.00 0.00 0.00
0.00 0.03 0.01 0.00 0.00 0.00 0.00 0.00 0.00 0.01 0.00 0.00 0.00 0.00 0.00 0.00 0.00 0.00 0.00 0.00 0.00 0.00 0.00 0.00 0.00 0.00 0.00 0.00 0.00 0.00 0.00 0.00 0.00 0.00 0.00 0.00 0.00 0.00 0.00 0.00 0.00 0.00 0.00 0.00
0.01 0.03 0.02 0.00 0.00 0.00 0.00 0.00 0.00 0.01 0.01 0.01 0.02 0.01 0.00 0.00 0.00 0.00 0.00 0.00 0.00 0.00 0.00 0.00 0.00 0.00 0.00 0.00 0.00 0.00 0.00 0.00 0.00 0.00 0.00 0.00 0.00 0.00 0.00 0.00 0.00 0.00 0.00 0.00
0.00 0.00 0.01 0.01 0.00 0.00 0.00 0.00 0.00 0.00 0.00 0.00 0.00 0.00 0.00 0.00 0.00 0.00 0.00 0.00 0.00 0.00 0.00 0.00 0.00 0.00 0.00 0.00 0.00 0.00 0.00 0.00 0.00 0.00 0.00 0.00 0.00 0.00 0.00 0.00 0.00 0.00 0.00 0.00
0.00 0.00 0.00 0.00 0.00 0.00 0.00 0.00 0.00 0.00 0.00 0.00 0.00 0.00 0.00 0.00 0.00 0.00 0.00 0.00 0.00 0.00 0.00 0.00 0.00 0.00 0.00 0.00 0.00 0.00 0.00 0.00 0.00 0.00 0.00 0.00 0.00 0.00 0.00 0.00 0.00 0.00 0.00 0.00
0.00 0.00 0.00 0.00 0.00 0.00 0.00 0.00 0.00 0.00 0.00 0.00 0.00 0.00 0.00 0.00 0.00 0.00 0.00 0.00 0.00 0.00 0.00 0.00 0.00 0.00 0.00 0.00 0.00 0.00 0.00 0.00 0.00 0.00 0.00 0.00 0.00 0.00 0.00 0.00 0.00 0.00 0.00 0.00
0.00 0.00 0.00 0.00 0.00 0.00 0.00 0.00 0.00 0.00 0.00 0.00 0.00 0.00 0.00 0.00 0.00 0.00 0.00 0.00 0.00 0.00 0.00 0.00 0.00 0.00 0.00 0.00 0.00 0.00 0.00 0.00 0.00 0.00 0.00 0.00 0.00 0.00 0.00 0.00 0.00 0.00 0.00 0.00
0.00 0.00 0.00 0.00 0.00 0.00 0.00 0.00 0.00 0.00 0.00 0.00 0.00 0.00 0.00 0.00 0.00 0.00 0.00 0.00 0.00 0.00 0.00 0.00 0.00 0.00 0.00 0.00 0.00 0.00 0.00 0.00 0.00 0.00 0.00 0.00 0.00 0.00 0.00 0.00 0.00 0.00 0.00 0.00
0.00 0.00 0.00 0.00 0.00 0.00 0.00 0.00 0.00 0.00 0.00 0.00 0.00 0.00 0.00 0.00 0.00 0.00 0.00 0.00 0.00 0.00 0.00 0.00 0.00 0.00 0.00 0.00 0.00 0.00 0.00 0.00 0.00 0.00 0.00 0.00 0.00 0.00 0.00 0.00 0.00 0.00 0.00 0.00
0.00 0.00 0.00 0.00 0.00 0.00 0.00 0.00 0.00 0.00 0.00 0.00 0.00 0.00 0.00 0.00 0.00 0.00 0.00 0.00 0.00 0.00 0.00 0.00 0.00 0.00 0.00 0.00 0.00 0.00 0.00 0.00 0.00 0.00 0.00 0.00 0.00 0.00 0.00 0.00 0.00 0.00 0.00 0.00
0.00 0.00 0.00 0.00 0.01 0.00 0.00 0.00 0.00 0.00 0.00 0.00 0.00 0.00 0.00 0.00 0.00 0.00 0.00 0.00 0.00 0.00 0.00 0.00 0.00 0.00 0.00 0.00 0.00 0.00 0.00 0.00 0.00 0.00 0.00 0.00 0.00 0.00 0.00 0.00 0.00 0.00 0.00 0.00
0.00 0.00 0.00 0.00 0.00 0.00 0.00 0.00 0.00 0.00 0.00 0.00 0.00 0.00 0.00 0.00 0.00 0.00 0.00 0.00 0.00 0.00 0.00 0.00 0.00 0.00 0.00 0.00 0.00 0.00 0.00 0.00 0.00 0.00 0.00 0.00 0.00 0.00 0.00 0.00 0.00 0.00 0.00 0.00
0.00 0.00 0.00 0.00 0.00 0.00 0.00 0.00 0.00 0.00 0.00 0.00 0.00 0.00 0.00 0.00 0.00 0.00 0.00 0.00 0.00 0.00 0.00 0.00 0.00 0.00 0.00 0.00 0.00 0.00 0.00 0.00 0.00 0.00 0.00 0.00 0.00 0.00 0.00 0.00 0.00 0.00 0.00 0.00
0.00 0.00 0.00 0.00 0.00 0.00 0.00 0.00 0.00 0.00 0.00 0.00 0.00 0.00 0.00 0.00 0.00 0.00 0.00 0.00 0.00 0.00 0.00 0.00 0.00 0.00 0.00 0.00 0.00 0.00 0.00 0.00 0.00 0.00 0.00 0.00 0.00 0.00 0.00 0.00 0.00 0.00 0.00 0.00
0.00 0.00 0.00 0.00 0.00 0.00 0.00 0.00 0.00 0.00 0.00 0.00 0.00 0.00 0.00 0.00 0.00 0.00 0.00 0.00 0.00 0.00 0.00 0.00 0.00 0.00 0.00 0.00 0.00 0.00 0.00 0.00 0.00 0.00 0.00 0.00 0.00 0.00 0.00 0.00 0.00 0.00 0.00 0.00
0.00 0.00 0.00 0.00 0.00 0.00 0.00 0.00 0.00 0.00 0.00 0.00 0.00 0.00 0.00 0.00 0.00 0.00 0.00 0.00 0.00 0.00 0.00 0.00 0.00 0.00 0.00 0.00 0.00 0.00 0.00 0.00 0.00 0.00 0.00 0.00 0.00 0.00 0.00 0.00 0.00 0.00 0.00 0.00
MSLP
1013.49 1013.17 1012.22 1011.50 1011.18 1010.85 1010.48 1009.99 1009.18 1009.00 1009.02 1008.74 1008.18 1007.32 1007.12 1006.64 1005.53 1004.51 1004.78 1004.63 1004.74 1005.29 1006.47 1007.82 1008.54 1008.64 1008.40 1008.22 1008.04 1008.18 1008.38 1008.76 1009.30 1009.89 1010.36 1010.54 1010.70 1011.22 1011.58 1012.04 1012.47 1013.04 1013.78 1014.48
1013.86 1012.63 1011.83 1011.52 1011.35 1011.53 1011.07 1010.33 1009.68 1009.06 1008.92 1008.82 1008.31 1007.54 1006.99 1005.99 1004.63 1004.60 1004.79 1005.34 1005.56 1006.36 1007.45 1008.95 1010.03 1010.35 1010.46 1010.42 1009.74 1009.31 1009.33 1009.34 1009.71 1009.97 1010.45 1010.66 1010.85 1011.05 1011.42 1011.89 1012.25 1012.56 1012.99 1013.83
1012.85 1011.87 1011.68 1012.08 1011.71 1011.51 1010.83 1010.37 1009.78 1009.43 1009.48 1009.67 1008.50 1007.12 1005.78 1004.98 1004.39 1005.03 1005.97 1006.52 1007.39 1008.63 1009.19 1010.15 1011.11 1011.41 1011.56 1011.70 1011.38 1010.76 1010.63 1010.54 1010.64 1010.78 1010.93 1011.15 1011.45 1011.62 1011.66 1011.94 1012.30 1012.71 1013.10 1013.36
1012.71 1012.73 1012.59 1012.33 1012.03 1011.72 1010.93 1011.03 1010.97 1010.84 1010.48 1009.52 1009.36 1006.78 1006.16 1004.90 1004.51 1006.30 1007.31 1009.19 1010.02 1010.51 1011.20 1011.87 1012.19 1012.31 1012.70 1012.89 1012.75 1012.29 1011.99 1011.47 1011.47 1011.79 1011.83 1011.71 1011.71 1011.93 1011.86 1011.93 1012.24 1012.74 1013.22 1013.54
1012.60 1012.83 1012.95 1012.54 1012.03 1011.92 1011.53 1011.86 1011.74 1011.48 1010.99 1010.21 1009.48 1008.29 1005.47 1004.90 1005.53 1007.17 1009.07 1010.80 1012.11 1012.66 1012.87 1013.11 1013.67 1013.87 1014.25 1014.35 1014.20 1013.87 1013.36 1012.72 1012.22 1012.24 1012.50 1012.35 1012.41 1012.38 1012.19 1011.92 1012.23 1012.59 1013.12 1013.51
1012.25 1012.85 1012.86 1012.33 1012.26 1012.34 1012.28 1012.28 1011.63 1011.01 1011.29 1009.69 1008.11 1007.66 1006.02 1005.75 1007.03 1008.61 1010.31 1011.70 1013.16 1014.19 1014.41 1014.59 1014.77 1014.68 1014.90 1014.96 1014.65 1014.49 1014.98 1014.19 1013.30 1013.17 1013.20 1013.20 1013.03 1012.84 1012.68 1012.60 1012.75 1012.83 1013.03 1013.31
1011.79 1011.83 1011.05 1012.15 1012.29 1012.25 1012.55 1012.50 1011.57 1010.87 1010.65 1009.68 1009.28 1008.59 1007.58 1007.72 1008.77 1009.75 1011.57 1012.98 1013.97 1014.53 1015.19 1015.51 1015.60 1015.75 1015.77 1015.59 1015.64 1015.58 1015.39 1014.20 1014.06 1014.51 1014.18 1014.15 1014.10 1013.38 1013.03 1012.82 1012.97 1012.94 1012.94 1012.99
1011.93 1010.98 1011.35 1012.05 1011.97 1011.92 1012.20 1012.25 1012.53 1012.28 1011.86 1010.71 1010.53 1008.88 1008.11 1008.79 1010.31 1011.55 1012.74 1013.55 1014.28 1014.81 1015.37 1015.83 1016.22 1016.82 1016.59 1016.90 1016.82 1016.44 1015.28 1014.63 1014.87 1015.42 1015.22 1014.91 1014.85 1014.25 1013.91 1013.48 1013.43 1013.18 1012.82 1012.70
1012.41 1011.79 1012.45 1012.71 1012.72 1013.07 1012.62 1012.92 1012.96 1013.83 1013.95 1013.10 1010.47 1008.78 1008.68 1009.89 1011.05 1011.80 1013.01 1014.08 1014.88 1015.40 1015.86 1015.95 1016.38 1016.57 1016.65 1016.70 1016.27 1016.26 1016.08 1015.77 1015.97 1015.93 1015.85 1015.68 1015.79 1015.08 1014.80 1014.53 1014.10 1013.47 1013.22 1012.85
1014.10 1013.87 1012.91 1012.98 1013.24 1013.12 1013.62 1013.98 1014.05 1014.75 1014.22 1012.35 1009.85 1008.72 1008.40 1009.71 1010.66 1012.38 1013.29 1014.42 1015.20 1015.54 1015.51 1015.69 1015.77 1015.96 1016.22 1016.13 1016.55 1016.77 1016.51 1016.62 1016.87 1016.58 1016.64 1016.81 1015.70 1015.57 1015.55 1015.15 1014.72 1014.36 1013.73 1013.30
1015.02 1015.58 1013.85 1013.68 1013.06 1013.06 1013.83 1014.01 1014.34 1014.56 1014.07 1012.63 1011.18 1009.11 1008.62 1010.07 1011.37 1013.07 1014.35 1015.06 1015.72 1016.01 1016.11 1016.11 1016.45 1016.21 1016.36 1016.76 1017.15 1017.25 1017.05 1016.97 1016.88 1016.51 1016.24 1015.84 1016.13 1016.45 1016.35 1015.77 1015.34 1014.96 1014.32 1013.88
1015.57 1015.69 1015.03 1013.57 1013.00 1013.31 1013.33 1013.69 1014.23 1014.39 1013.90 1013.14 1011.89 1009.75 1009.52 1011.67 1012.94 1014.51 1015.27 1015.86 1016.29 1016.53 1016.60 1016.70 1016.78 1017.10 1016.88 1016.94 1016.92 1016.85 1017.05 1016.85 1016.84 1017.08 1017.03 1016.77 1016.73 1016.61 1016.53 1016.58 1016.13 1015.47 1014.67 1014.04
1016.71 1016.43 1015.97 1014.36 1013.32 1013.93 1014.17 1015.18 1015.72 1015.36 1014.71 1013.12 1012.23 1010.55 1011.59 1013.02 1014.78 1015.76 1016.23 1016.69 1016.67 1016.77 1016.61 1016.99 1017.15 1017.19 1017.14 1017.18 1017.32 1017.57 1017.60 1017.40 1017.31 1017.43 1017.49 1017.11 1017.05 1016.90 1016.61 1016.46 1016.44 1016.01 1015.27 1014.59
1017.81 1017.90 1017.40 1016.34 1014.75 1014.75 1015.34 1015.61 1016.07 1016.06 1015.01 1013.78 1013.26 1012.27 1011.88 1012.37 1013.23 1014.69 1015.63 1016.20 1016.61 1016.85 1017.23 1017.18 1017.18 1017.54 1017.76 1017.56 1017.72 1017.97 1017.82 1017.59 1017.68 1017.79 1017.65 1017.29 1017.26 1017.16 1016.79 1016.46 1016.20 1015.98 1015.53 1014.85
1018.66 1018.37 1017.98 1017.07 1016.50 1016.46 1016.44 1016.52 1015.50 1015.39 1014.87 1014.59 1013.20 1012.94 1012.77 1013.14 1013.81 1015.24 1016.25 1016.45 1016.60 1016.84 1016.95 1017.23 1017.67 1018.04 1017.89 1017.79 1017.83 1017.90 1017.97 1017.78 1017.92 1018.06 1017.78 1017.64 1017.41 1017.12 1016.79 1016.43 1016.02 1015.70 1015.39 1014.81
1019.67 1018.81 1018.55 1017.83 1017.47 1017.11 1016.36 1015.43 1014.88 1014.94 1014.51 1014.16 1014.10 1013.27 1013.12 1013.82 1014.77 1015.22 1015.59 1015.88 1016.19 1016.45 1016.73 1017.13 1017.61 1017.75 1017.84 1017.98 1018.13 1018.29 1018.18 1018.06 1018.08 1017.84 1017.53 1017.36 1017.10 1016.77 1016.42 1015.94 1015.60 1015.15 1014.96 1014.43
1019.95 1019.73 1019.39 1017.97 1017.77 1017.20 1016.04 1014.50 1014.91 1014.44 1014.13 1014.08 1013.82 1013.92 1014.45 1015.01 1015.36 1015.49 1015.83 1016.15 1016.24 1016.44 1016.55 1016.79 1017.11 1017.29 1017.38 1017.46 1017.67 1017.83 1017.84 1017.83 1017.88 1017.83 1017.55 1017.29 1016.98 1016.59 1016.09 1015.67 1015.20 1014.88 1014.55 1013.84
1019.55 1019.95 1020.18 1018.62 1018.74 1017.06 1014.22 1014.19 1014.70 1014.49 1014.27 1014.43 1015.00 1015.47 1015.93 1016.01 1015.92 1015.91 1016.07 1016.17 1016.29 1016.32 1016.35 1016.35 1016.48 1016.86 1017.08 1017.32 1017.54 1017.58 1017.64 1017.73 1017.78 1017.64 1017.35 1016.96 1016.78 1016.45 1015.75 1015.16 1014.72 1014.18 1013.80 1013.15
1019.37 1019.83 1019.73 1019.18 1017.88 1015.91 1015.19 1015.04 1014.89 1014.74 1014.47 1015.04 1015.43 1015.89 1016.09 1016.21 1016.02 1015.55 1015.59 1015.70 1015.89 1015.99 1016.24 1016.27 1016.31 1016.90 1017.24 1017.55 1017.69 1017.90 1017.77 1017.65 1017.61 1017.40 1017.14 1016.78 1016.31 1015.70 1015.20 1014.77 1014.39 1013.80 1013.25 1012.38
1019.50 1019.46 1019.73 1019.21 1018.25 1016.32 1015.26 1015.84 1015.81 1015.91 1015.21 1015.33 1015.82 1016.29 1016.44 1016.60 1016.32 1015.42 1015.59 1015.94 1015.91 1016.01 1016.17 1016.27 1016.62 1017.16 1017.43 1017.83 1018.06 1018.04 1017.83 1017.63 1017.43 1017.08 1016.62 1016.24 1015.91 1015.53 1014.95 1014.36 1013.62 1012.92 1012.55 1011.63
1019.65 1019.61 1019.02 1018.26 1017.50 1016.15 1015.58 1015.80 1016.37 1016.25 1015.35 1015.55 1016.14 1016.42 1016.55 1016.56 1016.29 1015.84 1015.67 1015.60 1015.82 1015.99 1016.22 1016.68 1017.16 1017.66 1018.07 1018.23 1018.30 1018.03 1017.82 1017.65 1017.39 1017.02 1016.56 1016.14 1015.79 1015.34 1014.75 1014.04 1013.38 1012.73 1011.99 1011.31
1018.63 1018.46 1018.12 1018.04 1017.29 1016.33 1015.77 1016.26 1016.31 1015.22 1015.34 1015.74 1015.76 1015.70 1015.83 1015.82 1015.65 1015.65 1015.63 1015.63 1015.81 1016.42 1016.91 1017.60 1017.93 1017.99 1018.12 1018.43 1018.46 1018.06 1017.87 1017.88 1017.82 1017.59 1017.02 1016.51 1016.11 1015.55 1014.83 1014.21 1013.31 1012.72 1011.95 1010.88
1018.35 1017.45 1017.00 1017.09 1015.83 1015.27 1015.70 1015.31 1015.12 1015.11 1015.00 1014.97 1015.20 1015.15 1015.34 1015.38 1015.38 1015.51 1015.75 1016.14 1016.71 1017.40 1017.94 1018.34 1018.69 1018.65 1018.64 1018.89 1019.09 1018.57 1018.12 1018.14 1017.92 1017.72 1017.32 1016.82 1016.24 1015.58 1014.91 1014.00 1012.90 1012.02 1011.39 1010.37
1016.95 1016.21 1016.18 1016.15 1015.46 1014.70 1014.82 1014.56 1014.42 1014.45 1014.41 1014.33 1014.59 1014.76 1015.20 1015.46 1015.65 1016.12 1016.73 1017.30 1017.77 1018.30 1018.66 1019.01 1019.17 1019.11 1018.85 1019.09 1019.21 1019.09 1018.69 1018.54 1018.15 1017.45 1016.89 1016.40 1015.77 1014.95 1014.32 1013.51 1012.59 1011.55 1010.61 1009.47
1015.62 1015.27 1014.88 1014.59 1014.25 1014.16 1014.11 1013.82 1013.79 1013.86 1014.00 1014.18 1014.53 1015.01 1015.48 1016.01 1016.53 1017.08 1017.65 1018.27 1018.69 1019.03 1019.39 1019.73 1019.89 1019.69 1019.39 1019.32 1019.12 1019.18 1018.86 1018.56 1017.92 1017.24 1016.52 1015.75 1014.95 1014.03 1013.03 1012.36 1011.59 1010.60 1009.64 1008.80
1014.38 1013.79 1014.02 1013.12 1013.06 1013.19 1012.87 1012.77 1013.11 1013.51 1013.69 1013.93 1014.50 1015.64 1016.33 1017.01 1017.56 1018.11 1018.66 1019.19 1019.67 1019.95 1020.24 1020.31 1020.33 1020.24 1019.87 1019.60 1019.18 1018.85 1018.62 1018.29 1017.55 1016.59 1015.82 1015.00 1014.10 1013.08 1012.08 1010.94 1009.70 1009.16 1007.82 1006.66
Thickness
5662 5654 5651 5668 5671 5669 5665 5659 5660 5669 5679 5668 5671 5678 5679 5688 5699 5711 5710 5713 5713 5710 5703 5692 5686 5687 5690 5693 5695 5694 5692 5690 5685 5679 5674 5674 5674 5671 5669 5666 5662 5657 5652 5645
5642 5643 5660 5663 5663 5646 5647 5646 5647 5662 5669 5661 5660 5658 5673 5684 5698 5699 5701 5697 5699 5693 5687 5676 5668 5665 5663 5663 5671 5675 5676 5676 5673 5671 5666 5665 5662 5662 5659 5655 5653 5651 5649 5642
5639 5652 5654 5642 5642 5638 5647 5642 5647 5645 5649 5645 5645 5652 5669 5685 5696 5688 5683 5682 5676 5666 5666 5660 5651 5648 5646 5644 5647 5654 5655 5656 5656 5655 5654 5652 5649 5648 5647 5644 5642 5639 5635 5634
5634 5634 5627 5624 5624 5631 5627 5642 5632 5623 5620 5620 5630 5626 5653 5672 5679 5656 5656 5641 5639 5643 5641 5636 5635 5633 5629 5627 5628 5631 5634 5640 5638 5636 5635 5636 5637 5634 5635 5636 5632 5629 5623 5620
5621 5617 5614 5614 5620 5624 5620 5617 5614 5613 5609 5610 5617 5610 5644 5668 5649 5639 5629 5619 5612 5611 5614 5616 5613 5612 5607 5603 5604 5606 5611 5616 5621 5621 5617 5620 5619 5619 5621 5625 5623 5619 5614 5610
5617 5612 5608 5614 5616 5611 5610 5604 5610 5613 5601 5603 5630 5625 5633 5640 5631 5623 5611 5604 5596 5590 5592 5593 5592 5593 5591 5589 5589 5590 5587 5595 5602 5602 5601 5600 5601 5602 5603 5604 5603 5603 5602 5599
5612 5612 5625 5608 5600 5604 5594 5592 5587 5591 5592 5599 5607 5603 5619 5625 5617 5614 5595 5584 5579 5577 5572 5570 5568 5568 5569 5570 5569 5569 5570 5580 5579 5575 5578 5578 5577 5583 5585 5586 5585 5586 5588 5588
5587 5598 5609 5599 5599 5597 5588 5594 5574 5560 5574 5587 5589 5586 5609 5608 5593 5585 5578 5573 5567 5564 5560 5556 5552 5547 5549 5546 5544 5548 5559 5562 5555 5549 5550 5553 5553 5559 5562 5566 5567 5568 5572 5574
5577 5585 5583 5580 5583 5576 5579 5570 5576 5541 5536 5531 5578 5603 5612 5585 5578 5574 5564 5556 5550 5546 5541 5540 5536 5532 5531 5531 5532 5529 5530 5534 5533 5531 5527 5526 5526 5532 5535 5538 5542 5549 5551 5554
5553 5546 5573 5568 5563 5563 5553 5550 5543 5531 5523 5535 5576 5588 5594 5586 5578 5558 5549 5539 5530 5526 5524 5522 5523 5520 5516 5517 5510 5506 5506 5503 5501 5504 5505 5503 5510 5508 5508 5511 5515 5518 5523 5529
5537 5519 5550 5550 5558 5553 5541 5533 5531 5529 5530 5525 5534 5563 5601 5570 5553 5540 5525 5514 5507 5503 5502 5500 5497 5498 5496 5491 5486 5485 5487 5487 5486 5486 5487 5490 5488 5485 5483 5486 5488 5491 5496 5500
5520 5512 5513 5540 5556 5544 5538 5532 5529 5515 5519 5515 5520 5540 5586 5536 5522 5506 5496 5491 5485 5479 5475 5472 5469 5465 5466 5465 5464 5464 5462 5462 5461 5458 5456 5457 5457 5459 5459 5457 5462 5468 5473 5476
5500 5495 5489 5512 5536 5516 5503 5500 5490 5490 5486 5502 5507 5521 5522 5510 5485 5467 5463 5460 5459 5454 5454 5449 5444 5441 5441 5438 5436 5433 5431 5432 5431 5428 5426 5429 5429 5429 5431 5432 5433 5436 5444 5450
5474 5467 5471 5479 5500 5502 5485 5484 5479 5466 5468 5484 5482 5492 5512 5514 5496 5464 5456 5444 5437 5432 5426 5423 5422 5417 5414 5414 5411 5407 5405 5404 5402 5399 5400 5402 5401 5401 5404 5407 5409 5410 5414 5421
5460 5449 5463 5467 5470 5463 5453 5448 5472 5469 5473 5456 5476 5475 5488 5486 5471 5441 5425 5422 5418 5415 5410 5402 5394 5387 5386 5383 5380 5379 5378 5378 5375 5372 5372 5372 5373 5374 5377 5380 5384 5386 5388 5393
5427 5432 5436 5427 5442 5439 5434 5458 5464 5458 5458 5449 5447 5449 5469 5442 5429 5426 5418 5412 5404 5398 5391 5382 5373 5367 5361 5356 5352 5348 5345 5344 5343 5344 5346 5346 5347 5349 5352 5355 5358 5361 5362 5367
5409 5408 5407 5406 5426 5417 5398 5434 5428 5433 5445 5442 5432 5424 5395 5396 5394 5395 5387 5380 5377 5372 5367 5360 5353 5348 5343 5338 5331 5325 5323 5320 5316 5314 5315 5315 5317 5320 5323 5326 5331 5332 5333 5339
5398 5390 5379 5381 5379 5365 5431 5437 5412 5406 5408 5402 5379 5363 5360 5362 5366 5368 5360 5354 5350 5350 5348 5344 5336 5330 5322 5316 5310 5306 5301 5294 5287 5285 5282 5283 5283 5286 5292 5296 5300 5303 5303 5309
5390 5379 5363 5355 5366 5384 5401 5399 5391 5383 5383 5371 5358 5348 5346 5343 5343 5354 5347 5341 5338 5332 5327 5323 5319 5309 5301 5290 5283 5277 5274 5270 5265 5261 5258 5258 5258 5258 5259 5260 5263 5268 5268 5278
5364 5367 5351 5337 5324 5336 5377 5357 5350 5343 5335 5338 5331 5326 5322 5316 5310 5336 5331 5320 5316 5313 5308 5303 5297 5288 5280 5268 5259 5253 5250 5246 5242 5239 5238 5234 5231 5228 5229 5233 5237 5240 5238 5243
5334 5328 5327 5332 5323 5332 5352 5342 5328 5312 5337 5320 5312 5309 5306 5300 5304 5311 5312 5308 5301 5296 5291 5282 5274 5265 5254 5246 5238 5236 5230 5221 5216 5214 5215 5213 5207 5201 5200 5201 5205 5206 5210 5212
5333 5328 5318 5308 5302 5300 5323 5307 5306 5322 5315 5305 5305 5308 5299 5299 5299 5296 5294 5291 5285 5275 5265 5253 5246 5242 5235 5224 5216 5214 5208 5196 5188 5183 5182 5180 5175 5173 5172 5168 5171 5169 5170 5176
5302 5327 5314 5303 5312 5324 5305 5306 5310 5306 5302 5304 5297 5298 5293 5290 5288 5284 5278 5271 5259 5247 5237 5229 5220 5216 5212 5201 5189 5185 5181 5171 5165 5157 5150 5145 5143 5141 5139 5138 5141 5144 5143 5145
5307 5327 5295 5293 5306 5312 5304 5304 5299 5297 5293 5296 5292 5288 5281 5274 5272 5260 5248 5239 5232 5223 5215 5207 5200 5195 5192 5181 5169 5159 5153 5145 5139 5135 5130 5125 5120 5119 5117 5116 5117 5119 5122 5127
5309 5304 5297 5285 5299 5297 5293 5294 5290 5287 5285 5283 5278 5267 5263 5256 5245 5237 5227 5217 5211 5204 5195 5186 5179 5175 5170 5161 5153 5140 5131 5124 5119 5116 5113 5111 5109 5109 5110 5108 5106 5107 5110 5111
5305 5301 5285 5285 5298 5286 5289 5295 5287 5277 5278 5275 5267 5248 5237 5229 5223 5214 5205 5198 5189 5182 5174 5168 5162 5153 5147 5140 5134 5126 5118 5111 5107 5107 5103 5101 5099 5099 5100 5102 5105 5100 5104 5110